Theta_e
339 345 346 346 348 350 351 351 351 351 351 350 350 351 350 350 350 350 350 349 350 350 350 350 350 349 349 349 349 349 349 350 349 349 348 348 348 348 348 348 349 349 349 350 350 350 351 351 351 350 349 347 346 344 343 343 342 342 342 342 343 344 345 346 346 346 346 350 353 353 350 349 350 350 351 350 351 351 351 352 353 351 351 352 352
338 346 347 347 348 349 350 351 351 351 351 351 351 351 350 351 349 349 350 350 349 350 350 350 349 349 349 349 349 349 349 348 348 348 348 348 348 348 348 348 348 349 349 349 349 350 350 349 349 348 347 346 344 343 342 341 340 340 340 341 342 343 343 344 345 345 346 347 349 350 351 350 350 350 350 349 350 350 350 351 351 350 350 352 352
341 345 347 348 348 349 350 350 350 351 351 351 351 350 350 350 350 350 350 350 350 349 350 349 349 348 348 349 349 349 348 348 348 349 348 348 348 347 348 348 348 349 348 349 349 349 348 348 347 347 345 343 342 341 340 339 338 338 339 340 341 342 343 343 344 344 344 345 349 348 347 349 349 349 349 349 349 349 348 349 350 350 350 351 351
339 344 346 348 346 348 350 351 350 350 351 351 350 351 350 350 350 350 350 350 350 349 349 349 349 349 348 349 349 348 347 347 348 348 348 348 348 348 348 348 348 348 348 348 348 347 347 347 345 345 343 341 339 339 338 337 336 336 336 338 340 341 342 343 342 343 342 343 345 346 348 348 348 349 349 349 348 348 347 348 349 349 350 351 351
339 343 348 347 349 347 350 351 351 350 350 350 350 351 350 350 349 350 350 350 349 349 349 348 349 348 349 348 348 348 348 347 347 347 347 348 347 347 347 347 347 347 348 347 347 346 346 344 344 343 340 338 337 337 336 335 335 335 335 336 338 340 341 341 341 342 342 342 345 344 346 347 349 349 349 349 348 347 346 346 347 348 348 349 350
338 343 348 345 347 350 347 351 351 350 351 350 350 350 350 350 349 349 350 349 349 349 349 348 348 349 348 348 348 348 347 347 346 347 346 347 346 346 346 347 347 347 347 347 346 345 344 342 342 341 339 337 336 335 335 334 334 334 335 336 337 338 338 339 339 339 341 341 339 343 343 345 346 347 348 349 349 347 346 346 346 346 347 346 349
338 343 348 345 347 347 344 350 350 351 351 350 350 350 349 349 349 349 350 349 349 349 349 349 349 348 348 348 347 347 347 347 346 346 346 346 345 345 346 345 346 346 346 346 345 344 343 341 340 339 338 335 334 333 333 333 333 332 333 334 335 336 336 336 336 337 340 339 343 342 342 344 346 347 347 347 348 347 346 346 346 346 347 347 347
339 344 347 346 347 345 343 349 351 351 350 350 350 350 350 349 349 349 348 349 349 349 349 348 348 348 347 347 347 347 347 346 346 346 345 344 344 343 343 344 345 345 345 344 343 342 341 339 338 338 336 334 333 332 331 331 331 330 331 333 334 334 334 334 334 335 338 339 343 342 342 343 345 348 348 347 347 348 347 347 347 347 348 348 346
339 343 345 347 347 344 344 347 351 350 350 350 351 350 350 349 349 349 349 348 349 348 349 348 348 347 347 348 347 346 346 345 345 344 344 343 342 341 340 340 341 342 342 342 341 340 339 338 337 337 335 334 332 331 330 329 329 330 329 330 331 332 331 331 332 334 337 340 340 342 343 341 344 346 347 346 347 347 346 346 347 346 346 345 346
339 343 345 346 347 341 343 347 350 350 350 350 350 350 349 349 349 349 348 348 348 348 348 348 347 347 348 346 346 346 345 345 343 342 340 340 339 338 338 339 339 339 339 339 338 338 336 336 335 335 333 332 331 329 329 328 327 328 328 329 330 330 330 329 332 335 337 338 339 340 343 345 344 345 345 345 345 344 343 342 342 342 343 343 344
339 341 344 345 351 341 345 348 349 350 350 350 350 349 349 349 348 348 348 348 348 348 347 347 347 347 346 346 346 345 344 343 341 340 339 338 337 337 337 338 337 337 337 336 336 335 335 335 334 333 332 330 329 328 327 327 327 327 327 327 328 328 328 329 334 334 336 337 338 338 340 343 343 343 344 344 344 343 341 341 342 343 342 342 342
337 341 344 344 343 340 344 347 349 350 350 350 350 349 349 348 348 348 348 348 348 347 347 347 347 346 346 345 345 345 344 341 340 340 338 337 336 336 337 336 335 335 334 335 334 334 334 333 332 331 329 327 326 326 325 324 324 324 325 326 326 325 325 328 332 334 335 336 337 340 338 337 340 341 343 342 342 341 340 340 340 340 341 341 341
337 340 343 344 349 338 343 346 348 349 350 349 349 348 348 347 347 347 347 347 347 347 347 346 346 346 346 345 344 343 342 341 341 339 338 337 336 335 336 336 334 334 334 333 332 333 332 332 330 328 327 325 325 324 323 323 322 322 323 324 324 323 323 327 330 332 333 335 336 337 338 339 339 340 340 340 340 339 339 338 338 338 339 339 339
337 340 342 342 346 337 339 343 346 348 349 349 349 348 348 347 347 347 347 347 347 347 346 346 346 346 345 344 343 343 341 340 337 334 332 332 332 333 333 334 332 331 332 331 331 332 331 329 328 326 325 324 323 323 322 322 321 321 321 322 321 320 321 324 329 331 332 333 335 336 335 334 335 337 338 339 339 338 337 337 337 336 336 336 336
337 341 342 342 342 344 333 337 342 345 346 348 347 347 347 346 347 347 347 347 346 346 346 346 345 344 344 343 342 341 341 339 335 334 333 332 332 332 332 332 331 331 331 331 331 330 329 328 326 325 324 323 323 322 322 321 320 319 319 319 319 318 318 322 327 329 330 331 333 334 333 332 334 335 336 336 336 336 336 336 336 335 335 335 334
338 340 341 340 342 343 342 334 335 340 342 344 344 345 346 346 346 346 346 346 346 345 345 345 345 345 343 342 341 341 340 336 335 333 332 331 332 332 332 331 331 331 331 331 330 329 328 327 325 323 323 322 322 321 320 319 318 317 317 317 316 316 318 319 325 326 328 329 331 331 331 331 332 332 332 333 333 334 334 334 335 334 334 334 333
337 340 340 339 341 341 343 342 338 331 334 338 339 340 342 343 344 344 344 344 344 344 344 343 343 343 342 342 341 339 339 339 334 333 331 331 332 332 331 331 331 331 330 330 329 328 328 326 324 322 322 321 320 319 318 317 315 315 314 314 314 315 316 317 323 324 326 328 330 330 329 329 329 330 330 330 330 331 332 332 333 332 333 333 333
338 338 337 338 339 338 342 343 342 339 342 334 331 334 338 340 341 342 341 341 341 341 342 341 340 339 337 336 336 335 336 336 335 333 331 331 331 331 331 330 331 330 330 330 329 328 326 324 323 322 321 320 319 318 317 315 313 312 312 312 312 311 314 314 321 323 324 327 328 328 327 328 328 328 328 328 328 329 329 330 330 330 330 331 331
335 336 337 337 337 338 337 341 342 341 341 340 341 339 331 335 337 337 337 337 338 337 337 337 335 334 333 331 331 330 329 330 330 331 332 331 330 328 330 330 330 329 329 329 329 327 325 324 323 321 320 319 318 316 315 313 311 310 309 308 308 309 310 315 319 321 322 323 326 325 325 327 326 327 328 327 327 328 328 328 329 328 329 329 330
333 334 334 336 337 337 337 337 339 340 340 340 340 340 331 328 332 334 333 334 334 334 333 333 328 327 326 326 324 327 326 328 323 328 327 329 327 326 327 328 329 329 329 328 328 326 325 324 323 321 320 318 316 314 312 311 309 308 307 305 306 307 312 314 316 318 319 320 324 323 324 326 326 327 327 326 327 327 326 327 327 327 327 328 328
330 332 333 333 336 336 336 337 337 338 339 339 338 339 338 327 328 328 328 329 330 330 330 326 321 320 321 319 321 330 330 330 329 329 322 329 321 321 325 329 328 328 328 327 326 325 324 324 322 320 318 316 313 312 310 309 308 307 305 305 305 307 310 312 314 315 318 320 321 322 324 325 325 326 325 325 325 325 325 326 326 326 327 327 327
329 330 332 334 335 336 336 336 335 335 338 338 339 338 339 331 335 335 334 330 327 325 329 332 325 332 322 326 330 329 330 330 329 324 327 327 325 318 322 327 328 327 327 326 326 325 324 323 321 320 318 315 310 308 306 306 305 304 304 304 308 306 309 309 312 313 316 318 319 319 323 324 324 324 324 325 324 324 325 325 324 324 325 325 325
327 329 330 332 334 334 335 334 335 335 334 337 337 336 337 333 334 334 334 329 330 331 332 331 331 331 330 329 328 329 329 329 328 326 326 320 325 318 321 325 327 326 325 325 324 324 323 322 321 318 315 311 309 307 303 302 301 302 304 308 304 305 307 308 309 312 315 317 318 317 322 323 323 324 324 324 324 323 324 324 323 324 324 324 323
326 328 329 332 333 333 334 334 335 335 334 333 335 333 334 334 334 334 333 332 332 331 332 331 331 331 330 329 328 329 328 327 322 318 321 325 324 317 319 320 321 321 320 321 322 322 321 319 317 315 309 308 307 305 304 301 299 303 306 303 303 305 305 305 306 310 313 315 316 316 320 323 323 323 324 324 323 323 323 324 323 323 323 323 322
326 328 329 330 331 332 333 334 335 335 335 333 333 332 333 332 332 333 332 331 331 331 331 331 330 330 330 328 329 328 328 327 327 325 324 325 324 324 324 324 323 321 317 320 319 318 316 313 310 307 304 305 305 305 305 304 304 305 304 303 303 304 304 305 304 306 311 313 313 314 317 322 323 323 323 323 323 323 323 323 322 322 322 322 322
327 326 327 328 330 331 332 333 334 335 334 333 332 331 331 331 331 331 331 331 331 330 330 330 329 329 329 327 327 327 327 326 325 325 323 324 323 322 322 322 322 320 318 318 316 316 313 310 305 303 303 305 305 305 305 303 304 303 302 305 303 304 304 303 303 304 308 311 312 312 316 319 323 322 323 323 323 323 323 322 322 322 321 321 321
325 325 327 328 329 330 331 332 332 333 333 333 332 332 331 331 331 331 331 330 329 329 328 329 329 329 328 327 326 325 325 323 323 323 322 320 321 321 320 321 321 319 316 317 316 314 311 306 303 304 304 304 305 306 305 305 305 304 304 304 304 303 303 303 303 303 306 309 311 310 314 317 321 322 322 322 323 322 322 322 322 322 321 321 321
324 325 325 326 328 328 329 331 331 331 332 332 331 330 331 331 331 330 330 328 328 328 328 328 329 327 327 326 325 325 323 320 321 320 319 319 320 320 321 320 320 319 315 318 315 311 306 304 304 304 304 304 303 303 303 304 304 304 304 304 304 303 303 303 303 304 305 308 310 309 311 315 319 320 321 322 323 322 322 322 322 321 321 321 320
318 322 324 325 327 328 328 328 329 330 331 332 330 330 330 330 330 329 328 326 328 328 328 328 327 327 326 326 325 322 321 319 319 319 319 318 320 321 320 319 320 318 315 313 311 307 304 303 303 303 303 302 302 302 302 301 303 303 302 303 303 302 303 302 303 303 304 306 309 308 309 313 317 319 319 321 321 321 321 321 321 321 320 320 320
317 319 323 324 325 327 326 327 328 328 329 330 329 329 329 329 329 329 328 327 327 328 328 326 326 326 325 325 324 321 319 318 318 319 318 319 320 320 319 317 316 315 312 309 308 305 303 303 303 302 302 302 301 301 301 301 301 302 302 303 301 301 303 302 302 302 303 305 307 308 306 310 314 318 319 319 320 321 321 320 320 320 320 320 320
318 318 319 323 325 325 326 326 326 327 328 327 328 327 327 327 328 329 329 327 327 327 326 326 326 325 325 325 323 321 319 318 318 318 317 317 317 318 316 315 313 311 309 307 306 304 303 302 302 301 301 301 300 300 300 301 301 301 301 302 301 301 301 302 301 303 302 304 306 308 307 308 310 313 317 318 318 318 318 319 319 319 319 319 319
317 317 318 321 323 324 325 325 326 326 326 326 326 325 326 327 328 328 327 327 327 326 326 326 324 323 323 323 322 320 318 317 317 317 316 316 316 315 313 312 311 309 308 306 304 303 303 303 304 303 303 302 301 300 301 299 299 300 301 301 301 301 300 301 301 301 302 303 305 306 308 309 307 309 312 315 317 317 318 318 317 317 318 318 318
318 318 318 319 321 323 323 324 325 326 325 325 325 325 326 326 327 327 326 327 326 326 325 325 324 322 321 321 320 320 317 316 315 316 315 315 315 313 312 311 310 308 306 306 305 304 302 303 303 303 302 302 300 300 302 300 299 299 299 299 300 300 300 301 300 300 301 302 302 304 306 308 307 306 306 308 312 315 316 316 316 316 316 316 317
317 318 318 318 319 323 323 324 324 325 325 324 325 325 325 326 326 327 326 326 326 325 324 324 323 322 319 318 319 319 317 315 315 315 314 313 313 312 311 309 309 307 305 304 302 302 302 302 302 301 300 300 299 299 298 299 299 299 299 299 299 299 300 300 299 300 300 301 301 303 302 305 307 306 305 304 305 310 313 314 314 315 314 315 315
317 317 318 318 318 320 322 321 323 324 324 324 324 324 325 325 325 325 326 326 325 324 324 323 322 320 319 317 317 317 316 315 314 313 312 311 311 310 310 308 307 306 304 304 302 301 301 300 299 298 299 298 299 298 297 298 298 298 298 298 299 299 299 299 299 300 299 301 300 301 301 300 302 305 305 303 302 303 307 310 313 313 314 313 314
314 316 317 318 317 318 320 320 322 322 324 323 324 324 324 324 324 321 325 326 324 324 323 322 321 320 318 316 316 316 315 314 313 312 310 309 309 309 308 307 306 304 303 302 301 299 299 300 299 299 297 297 298 297 298 298 298 298 298 298 298 298 298 298 298 298 299 299 299 300 300 299 299 300 301 301 300 299 302 305 308 309 310 311 312
312 314 315 316 316 316 318 319 319 320 322 323 323 324 324 323 323 323 324 324 323 322 322 322 320 318 317 315 315 314 313 313 312 311 309 308 307 307 307 307 305 303 302 301 299 300 300 300 298 299 299 298 298 298 298 298 298 298 298 298 298 298 298 297 297 297 299 298 298 298 298 299 297 297 297 298 297 297 298 301 303 304 304 306 309
312 313 313 314 315 315 317 318 318 320 320 322 322 323 323 323 322 323 322 322 322 322 322 321 319 317 316 315 314 314 312 312 311 309 308 307 306 306 306 306 304 302 301 300 299 300 300 299 297 299 298 298 297 297 297 297 299 297 296 297 297 297 298 297 297 296 296 296 296 297 297 296 295 296 297 298 297 295 294 296 298 299 299 303 306
311 310 312 313 314 315 315 316 316 317 318 320 321 322 322 321 321 321 321 320 321 321 321 319 318 317 315 314 313 312 310 311 310 309 307 306 305 304 305 305 303 301 301 300 299 299 300 299 299 298 299 299 297 298 297 298 298 297 296 295 296 297 298 297 296 295 296 297 296 297 298 295 296 296 296 296 296 296 295 294 294 296 296 298 301
310 310 310 311 312 313 314 314 314 314 316 317 319 319 319 318 317 318 318 317 318 317 319 318 318 316 315 313 312 311 310 310 309 308 307 305 304 303 303 304 302 301 300 299 298 298 299 299 299 298 298 299 300 298 298 297 296 295 294 294 295 296 296 296 295 295 296 296 296 295 295 295 295 295 296 296 296 296 296 297 296 296 294 295 297
309 308 308 309 311 311 312 311 313 313 313 314 315 316 315 316 316 316 315 316 315 316 316 317 316 315 315 313 311 310 310 309 308 307 306 304 303 303 303 303 301 300 300 299 299 299 300 299 298 298 298 297 298 299 299 297 294 292 293 294 293 294 295 295 294 295 295 295 295 293 294 294 294 295 295 295 295 296 295 295 295 296 295 294 292
307 308 308 308 310 310 310 311 312 311 312 313 314 315 315 315 314 314 314 315 314 313 313 314 315 315 314 313 311 310 309 308 307 307 305 304 302 301 302 301 300 300 300 300 300 299 300 299 299 296 298 296 295 298 297 296 292 292 291 291 292 292 293 292 293 294 294 295 294 294 294 294 294 294 294 294 294 294 294 294 295 295 296 296 294
308 308 308 308 308 309 309 310 310 310 310 311 312 312 314 315 314 314 314 313 315 315 314 314 314 313 313 311 310 309 308 307 306 305 304 303 302 301 301 301 300 300 299 299 299 299 299 298 298 295 294 296 296 298 297 296 292 294 295 293 290 289 291 290 292 293 293 294 294 294 294 294 294 295 294 293 293 293 293 294 294 294 294 295 295
306 306 306 306 307 307 308 309 309 310 309 310 310 312 313 314 314 314 313 313 312 312 312 312 312 311 310 309 309 309 307 306 305 304 304 303 302 301 301 300 299 300 299 298 299 299 298 297 298 296 295 292 293 295 297 296 296 294 291 291 293 292 290 289 289 291 293 293 293 293 294 294 294 295 294 293 293 292 292 293 293 293 293 294 294
305 305 306 305 306 306 307 308 308 308 309 308 308 309 310 310 310 310 308 309 309 306 307 307 308 307 307 307 306 307 307 306 305 304 303 302 302 301 300 299 299 299 299 298 299 299 298 297 297 296 295 293 292 294 295 296 298 299 297 292 293 291 291 295 290 290 291 291 292 293 293 293 293 293 292 293 294 293 292 292 292 293 293 293 294
303 304 305 305 306 306 307 307 308 308 307 308 308 308 308 307 306 305 304 304 303 304 303 303 305 305 305 307 307 306 306 305 305 304 303 302 301 301 301 299 299 298 298 298 299 299 298 297 297 296 296 296 295 294 293 295 296 299 302 301 301 294 293 293 292 287 290 292 292 292 292 292 293 292 292 293 293 293 292 292 292 292 292 292 293
302 304 304 304 305 305 306 306 306 307 308 307 307 306 306 306 305 305 305 305 304 305 306 307 306 306 307 306 306 305 305 304 304 304 303 302 301 301 300 299 299 299 298 298 298 298 298 297 297 296 296 296 297 293 293 293 295 296 299 300 298 295 298 293 290 292 286 289 291 290 291 292 292 292 292 292 292 292 292 292 292 292 292 292 292
301 302 303 303 303 303 304 305 305 305 306 306 306 306 305 305 305 305 305 304 304 304 305 305 306 305 305 305 305 304 304 304 303 303 303 302 300 300 300 299 299 298 298 297 297 298 299 298 298 296 297 296 296 294 293 293 291 291 295 296 296 298 296 298 303 295 293 286 287 291 292 292 291 291 292 292 292 292 292 291 292 291 291 291 292
300 300 301 302 302 303 302 303 303 303 304 305 305 305 305 304 304 304 304 305 304 304 304 305 304 304 303 303 303 302 302 302 303 303 302 302 300 300 300 299 298 298 297 297 297 299 298 297 297 296 296 296 295 296 295 293 292 291 293 292 295 294 294 296 299 299 297 292 290 287 288 291 292 291 291 292 292 293 292 292 292 291 291 291 291
300 301 301 301 301 301 301 301 301 301 302 303 303 304 304 304 303 303 303 303 304 304 304 303 303 303 301 301 301 301 301 300 301 302 302 301 300 299 299 299 298 298 297 297 297 297 298 298 297 296 295 295 295 295 295 295 294 293 293 293 291 292 293 292 293 293 294 299 294 287 289 287 286 289 291 290 291 292 292 292 291 291 291 290 290
299 299 299 300 300 300 300 299 299 300 301 301 302 302 303 303 303 303 302 302 303 303 302 302 302 303 301 301 301 300 300 300 300 300 301 300 300 299 298 299 298 297 297 297 296 296 298 298 298 297 295 295 295 295 296 296 296 294 294 293 292 292 291 290 290 291 292 291 292 293 291 290 290 289 290 291 291 292 291 291 290 290 290 290 290
Wind_Speed
7 10 12 16 15 15 17 16 15 14 14 14 14 13 13 12 12 12 12 11 10 10 10 9 9 9 9 8 8 7 7 7 6 6 5 5 5 4 4 4 5 5 6 8 9 10 11 11 11 13 12 12 12 10 10 9 10 10 9 10 10 10 10 10 9 9 8 9 11 12 11 11 11 11 11 11 10 11 10 9 4 6 7 9 11
12 10 11 14 15 15 16 16 15 15 14 14 14 13 13 12 12 12 12 11 11 11 10 9 9 9 8 8 7 7 7 7 6 6 6 6 5 5 4 5 5 5 7 9 9 10 11 11 12 12 11 11 12 10 9 9 9 9 9 9 9 10 9 9 9 9 8 7 9 10 9 12 11 11 11 11 11 12 12 12 9 6 7 10 11
13 11 11 14 15 13 15 16 16 15 15 15 14 13 13 12 12 11 11 11 11 10 10 9 9 8 8 8 7 7 7 7 7 7 7 6 6 5 5 5 6 6 7 8 10 10 10 10 11 12 12 12 10 10 9 9 8 8 8 8 8 8 8 8 8 7 6 4 6 10 10 9 11 12 11 12 12 12 12 12 11 10 8 10 10
13 10 11 13 13 12 13 14 15 15 15 14 14 13 13 13 12 11 11 11 11 10 10 9 9 8 8 8 8 7 7 6 6 7 8 8 7 7 6 6 7 8 8 10 10 10 10 10 9 11 12 12 9 9 9 8 8 8 8 8 8 7 7 6 6 5 4 2 2 5 6 7 9 11 11 12 12 12 12 11 10 12 13 12 12
12 10 11 13 12 11 11 13 14 15 15 15 14 13 13 12 12 12 11 11 11 10 9 9 8 8 8 8 7 8 8 8 8 8 8 9 8 7 7 8 8 8 9 9 9 10 10 9 9 11 11 10 10 8 8 8 8 8 8 8 8 7 7 6 5 4 3 4 3 8 4 6 7 9 11 12 12 12 10 10 11 11 10 13 13
11 10 10 12 12 12 10 12 16 15 15 15 15 14 14 13 12 11 11 11 10 10 10 10 9 9 8 8 8 8 8 9 9 9 9 9 8 7 7 8 9 10 9 9 9 10 8 8 9 10 10 9 9 8 8 8 8 8 7 7 7 7 7 6 6 5 6 7 8 0 3 5 7 6 9 12 12 10 10 10 10 10 9 10 12
11 9 10 12 11 13 9 10 16 15 16 15 15 14 14 13 12 11 11 11 10 10 10 10 10 9 8 8 8 8 9 10 10 9 9 9 9 8 7 8 8 8 8 9 9 8 8 7 8 10 10 8 8 8 7 7 7 7 7 7 7 7 6 6 6 7 7 6 3 1 3 3 6 5 9 9 10 10 10 11 10 10 10 9 12
9 7 9 11 11 14 11 10 13 15 15 15 14 15 14 13 12 12 11 11 10 10 10 10 9 9 8 8 9 9 10 10 10 9 9 9 8 7 6 6 7 7 7 7 7 7 7 7 6 9 9 8 8 7 6 7 6 6 6 6 6 6 6 5 6 6 8 6 3 2 3 3 4 5 8 8 9 10 10 11 11 11 11 11 6
9 9 10 11 10 18 13 10 11 15 15 15 13 13 13 13 12 11 11 10 10 10 10 10 9 9 9 10 10 10 10 9 8 8 8 8 8 4 4 4 2 4 5 5 5 5 4 4 4 7 9 9 8 7 6 6 5 5 5 5 6 5 5 5 5 7 7 2 1 2 3 4 5 5 8 10 11 12 10 8 11 11 13 11 10
9 10 10 9 10 18 14 10 11 15 15 14 13 13 14 13 13 13 12 11 10 10 10 9 9 10 10 11 11 11 11 9 8 7 5 4 4 5 1 4 4 1 3 4 3 4 3 3 3 7 8 8 8 8 7 6 5 5 5 5 5 5 4 4 5 6 2 1 3 1 1 8 7 7 9 11 12 13 13 12 10 10 7 9 11
10 11 10 9 11 16 14 11 10 12 13 13 12 13 14 13 13 13 13 11 11 11 11 10 11 11 11 12 12 11 10 9 8 7 6 4 2 3 1 5 3 2 3 3 3 3 3 3 3 6 8 8 8 7 7 7 6 6 5 6 5 5 5 5 7 1 2 2 2 2 3 4 7 7 10 10 11 12 11 10 7 6 8 9 10
10 11 10 8 14 14 13 13 10 11 12 12 12 13 12 13 12 13 12 12 12 10 11 11 11 11 11 11 11 11 10 8 9 9 7 4 3 3 6 3 3 2 1 3 4 4 4 4 5 7 8 8 8 7 7 6 6 6 6 6 6 5 5 6 4 3 2 3 3 3 1 7 7 7 10 10 10 9 7 7 7 7 7 8 9
11 11 10 9 9 12 12 11 11 12 12 13 14 15 13 13 13 13 13 12 11 11 11 11 11 12 12 11 10 9 8 8 9 8 6 7 7 6 9 6 6 7 5 4 4 5 5 5 6 6 7 7 7 7 7 6 6 6 6 6 6 6 5 7 1 2 3 3 2 1 3 5 7 5 7 8 8 7 7 6 6 6 7 8 8
11 11 10 10 8 9 10 10 11 12 13 14 16 15 15 14 13 13 13 13 12 12 11 11 12 12 11 11 10 10 9 9 8 5 4 3 3 5 8 8 5 6 6 5 4 5 5 6 6 6 7 7 7 7 7 7 6 6 7 7 7 5 6 3 3 3 3 3 3 2 0 5 5 6 6 7 7 6 6 6 6 7 7 7 7
10 12 10 9 9 10 9 7 10 12 13 14 15 14 16 15 13 11 12 11 11 10 10 10 10 10 11 10 9 7 9 10 8 8 6 4 5 6 7 6 6 6 6 5 6 5 5 5 6 7 7 7 7 7 7 7 7 7 7 7 7 7 9 1 2 3 3 3 3 3 6 5 6 6 6 4 5 6 5 4 5 7 6 6 6
9 11 10 10 9 11 9 7 8 10 13 13 13 13 14 14 13 11 11 10 10 11 10 9 9 9 7 6 7 8 9 9 8 7 6 5 6 7 7 7 8 7 7 6 6 6 6 6 6 7 7 7 7 7 8 7 7 8 8 8 8 8 8 8 2 2 3 3 2 3 5 5 9 4 3 4 4 4 5 4 5 4 5 5 6
9 10 10 10 11 12 14 10 8 8 8 11 12 11 12 12 13 12 11 10 10 9 9 10 10 8 7 7 5 8 7 7 10 9 7 6 8 8 8 8 8 8 8 7 7 7 7 7 7 7 7 7 7 7 8 8 7 8 7 7 7 7 7 9 2 3 3 3 3 2 5 5 6 4 3 3 3 3 4 5 5 4 4 5 6
9 11 11 11 11 12 14 15 11 9 9 7 9 10 11 12 12 13 12 11 10 8 8 9 9 7 6 6 6 9 7 6 8 9 9 8 9 9 8 9 9 9 9 9 9 9 9 8 8 8 8 8 8 8 8 8 7 7 7 6 6 5 5 7 3 3 3 2 3 4 5 7 5 4 3 2 3 3 4 5 4 3 3 5 5
8 10 11 11 13 13 15 14 15 12 12 10 10 8 11 12 12 13 12 11 9 9 8 8 8 7 6 5 7 8 7 8 7 7 7 7 6 6 7 10 10 10 10 10 10 10 10 9 9 9 9 9 9 8 8 8 8 7 6 5 3 2 4 2 3 3 2 2 3 5 5 8 3 3 3 3 3 4 4 4 4 4 4 5 5
8 9 11 11 12 14 12 14 14 16 15 13 13 13 10 12 12 12 12 10 9 9 9 9 9 8 7 8 9 8 7 6 8 6 7 7 6 7 7 9 10 11 11 10 11 11 11 10 10 10 10 9 9 8 8 8 7 7 5 3 1 5 1 3 3 2 3 3 4 5 7 6 4 5 4 4 5 5 4 4 4 5 6 6 6
7 10 11 12 13 15 15 12 15 16 16 14 13 13 10 11 10 11 12 11 9 9 9 9 9 7 8 8 9 7 7 6 6 8 7 7 7 7 7 9 11 11 11 11 11 11 11 11 11 11 11 10 9 9 7 7 6 5 4 1 4 1 3 2 2 2 3 3 4 5 9 5 4 4 4 5 5 5 5 4 5 6 6 7 7
9 9 12 12 13 14 16 15 12 17 15 13 10 10 8 12 12 9 9 9 8 9 8 8 8 7 8 8 7 8 7 7 8 8 8 10 8 7 8 7 10 10 10 11 11 11 11 11 11 11 12 11 10 5 4 5 5 4 2 3 2 2 2 2 2 3 3 3 4 5 8 4 3 4 4 4 5 4 5 5 4 5 6 6 6
9 9 10 14 13 12 14 16 14 14 17 15 10 11 9 10 12 11 9 10 9 9 10 10 9 9 8 8 8 8 8 8 8 8 8 10 9 9 8 7 9 9 9 10 10 11 11 11 11 11 11 10 5 4 4 3 2 1 3 3 2 2 2 2 2 2 3 3 4 7 8 4 1 4 4 5 5 5 5 5 5 6 5 5 5
11 10 10 11 13 12 14 14 15 14 14 13 10 11 11 9 12 13 12 10 10 9 11 11 10 11 10 9 9 9 9 8 7 11 7 8 7 9 8 8 9 8 9 7 8 9 10 9 9 9 7 4 3 3 4 4 4 4 2 2 2 2 2 1 2 2 3 3 4 8 8 5 1 3 5 5 6 5 5 5 6 5 5 5 5
9 8 9 11 15 14 12 13 14 14 14 12 13 13 12 12 12 12 12 12 11 10 10 11 11 11 12 10 10 9 8 8 7 7 8 8 8 9 7 7 7 7 9 7 7 7 6 5 5 5 4 4 3 3 3 3 3 2 2 2 3 2 2 2 2 2 2 3 4 9 9 9 3 4 5 5 6 5 5 5 5 6 5 4 5
8 9 11 11 14 14 14 12 14 14 14 12 12 11 12 12 13 11 13 12 11 10 10 10 11 11 11 10 10 10 10 9 8 9 9 9 8 9 9 9 8 8 9 7 7 7 6 5 5 5 4 4 3 3 3 3 3 2 2 2 2 2 2 2 2 2 2 3 3 9 10 10 8 3 5 5 6 6 5 5 6 5 5 4 4
8 10 9 9 11 14 14 13 13 13 15 13 11 12 13 12 12 11 12 10 10 10 10 11 11 12 11 11 11 10 10 9 8 9 10 9 9 9 9 9 9 8 9 7 7 7 6 5 5 5 3 3 3 2 2 1 2 2 3 2 2 2 2 2 2 2 2 3 3 8 10 11 8 3 4 5 5 6 6 6 6 5 5 5 4
9 9 9 9 10 14 15 14 12 13 12 14 14 14 12 11 11 10 10 10 10 10 10 10 10 11 12 11 12 9 10 10 9 9 10 9 9 9 9 9 9 8 9 7 7 6 6 5 5 4 4 3 3 3 2 2 2 2 3 2 2 2 2 2 3 2 2 3 3 6 10 12 10 2 2 3 5 5 6 6 6 6 5 5 5
11 10 9 10 11 12 15 16 14 15 12 13 14 11 10 11 10 11 11 10 10 10 10 10 10 10 12 13 13 10 10 9 9 10 9 9 9 9 9 8 8 8 8 7 7 6 6 5 5 5 4 4 4 3 3 3 2 2 2 2 2 2 2 2 2 2 1 2 3 5 9 10 12 4 1 2 3 4 5 5 5 5 5 5 5
12 10 10 10 11 13 15 16 15 14 13 13 12 11 11 11 12 11 11 10 11 10 11 10 10 10 11 13 12 10 10 10 9 9 10 10 9 9 8 8 8 7 7 7 7 6 6 5 5 5 5 4 4 4 3 3 2 2 2 2 2 2 2 2 2 2 2 2 3 3 7 10 12 9 3 0 2 4 5 5 5 5 6 6 6
11 12 11 10 10 12 14 16 16 14 12 13 12 13 12 12 11 11 11 11 11 10 10 10 10 10 10 12 12 11 9 9 9 10 9 9 9 9 8 8 7 7 7 6 6 6 5 5 5 5 5 4 4 4 3 4 3 2 2 2 2 2 2 2 2 2 2 2 3 3 4 8 11 12 8 5 3 2 3 5 4 4 4 5 5
11 13 12 10 11 15 15 16 16 15 14 14 13 13 13 12 12 11 11 11 12 11 10 10 10 10 11 11 11 11 10 9 10 10 10 9 9 9 8 8 7 6 7 6 6 5 5 5 5 4 4 4 4 4 3 4 3 3 3 2 2 2 2 2 2 2 1 2 3 3 3 4 9 12 13 8 6 6 6 4 3 2 3 3 4
10 13 12 12 14 14 14 15 16 15 16 16 13 12 12 11 11 11 11 10 11 11 11 11 10 10 10 11 11 12 10 9 9 10 9 9 8 8 8 7 7 6 6 7 7 5 5 5 5 4 4 4 4 4 3 3 4 4 3 3 2 2 2 2 2 2 2 2 2 3 3 4 4 9 12 13 11 7 7 6 4 3 3 2 4
8 8 12 13 11 8 9 10 14 16 16 15 13 11 12 11 10 10 10 10 10 11 11 10 10 10 10 11 11 12 11 10 9 9 9 8 8 8 8 7 7 7 6 7 7 6 6 6 6 5 5 5 5 5 5 4 4 4 3 3 2 3 2 2 2 3 2 2 2 2 3 4 4 4 4 10 13 12 8 7 6 5 2 3 3
8 9 11 13 12 10 9 9 12 15 14 15 14 12 11 11 11 10 10 10 10 10 10 10 9 9 9 9 11 11 11 11 10 9 9 8 8 7 8 7 7 7 7 6 7 6 6 7 6 6 6 5 5 5 5 4 4 4 3 3 3 3 3 3 2 3 2 2 2 2 2 3 2 3 3 4 7 11 10 10 7 5 5 4 3
12 9 8 9 12 12 11 11 12 15 14 14 13 12 11 11 10 10 9 11 10 10 10 10 9 9 9 8 11 11 11 11 10 9 9 8 8 8 8 7 8 7 6 7 7 7 7 6 6 6 7 6 6 5 4 4 4 4 3 3 3 3 3 3 3 3 3 3 3 3 3 2 2 3 3 3 4 5 9 8 8 9 8 6 4
10 10 9 9 10 12 10 11 12 13 14 13 13 12 10 10 10 9 10 10 10 9 9 8 8 9 9 8 10 11 11 11 10 10 9 9 8 8 8 8 8 7 7 7 7 7 7 6 7 6 6 6 6 6 5 5 4 4 3 3 3 3 3 3 4 3 3 3 3 4 3 3 2 3 2 2 4 4 5 6 7 8 9 7 5
8 8 8 7 8 8 8 9 8 9 10 10 11 11 9 9 8 8 9 9 9 8 8 8 8 8 8 8 9 10 10 12 11 10 9 8 8 8 7 9 8 7 7 7 7 7 7 7 7 7 6 6 6 7 6 5 4 4 4 3 3 3 2 3 3 4 4 4 4 4 4 4 4 3 2 2 2 4 4 4 6 7 8 7 5
5 5 5 5 5 5 6 7 8 8 9 9 9 9 9 8 7 8 8 9 7 8 8 8 7 8 8 8 9 10 9 11 11 10 9 9 9 8 8 9 8 8 7 7 7 7 7 7 7 7 6 5 6 6 6 5 5 4 3 4 3 2 2 3 3 3 3 4 4 4 3 4 4 3 3 3 2 3 4 4 3 2 3 6 5
5 4 4 3 4 4 5 5 7 8 8 8 7 7 7 8 8 7 8 8 8 8 9 9 8 9 9 10 9 10 10 10 11 10 10 9 9 8 8 8 8 8 8 8 9 8 9 9 8 9 8 5 3 6 6 7 6 5 4 3 2 2 3 3 4 4 3 4 4 4 4 4 4 4 4 3 3 3 3 2 2 2 3 3 4
4 5 3 2 3 4 5 5 5 7 7 7 7 7 8 8 7 9 9 7 8 8 8 8 8 8 9 9 9 9 9 10 10 10 10 9 8 7 7 8 8 8 8 9 9 9 9 9 7 7 9 7 5 5 6 7 7 5 3 3 3 3 3 3 5 4 4 4 4 5 4 4 4 4 4 3 4 3 3 3 3 2 3 3 2
10 8 6 5 3 2 3 3 4 6 6 6 6 6 7 7 7 7 7 7 7 8 8 7 8 7 7 7 7 8 9 9 9 10 9 10 9 8 8 8 9 8 8 8 9 8 9 9 8 7 6 9 7 8 7 8 6 6 6 4 3 3 4 5 6 6 6 5 5 5 4 5 5 4 4 4 4 4 4 3 3 3 2 3 3
11 11 9 7 5 3 2 1 1 3 4 5 5 5 6 6 6 4 5 5 5 5 6 6 6 7 7 6 7 7 8 8 8 10 9 10 10 8 8 8 9 8 9 9 9 9 10 11 11 9 8 6 6 7 9 10 5 6 5 4 4 4 3 4 6 7 7 6 5 5 5 5 5 4 4 4 5 4 4 3 3 3 3 3 2
11 12 12 10 7 7 5 3 1 1 2 4 5 4 4 4 4 4 2 4 3 3 3 4 5 5 6 6 6 7 8 8 9 9 8 8 10 10 8 9 10 10 9 9 10 11 11 10 11 10 10 9 8 8 9 11 6 9 6 7 4 4 3 7 7 7 8 8 7 6 5 5 6 4 3 5 5 5 5 4 4 4 4 3 3
14 14 13 12 8 10 8 6 3 1 1 2 4 3 3 3 2 2 1 2 2 2 4 5 6 6 7 8 9 9 10 10 10 11 10 10 10 9 9 8 9 10 9 9 9 11 11 12 13 12 13 12 11 7 9 11 10 8 5 5 2 3 6 2 8 4 7 7 8 7 6 6 6 6 4 4 4 4 5 5 5 4 4 4 3
16 14 13 13 13 11 10 8 5 4 3 0 2 3 3 3 4 4 4 5 5 6 7 7 6 8 8 7 8 9 9 9 10 10 11 11 10 10 9 9 9 9 9 9 9 9 11 12 14 13 14 13 11 8 8 9 11 10 7 3 1 2 5 5 6 3 4 6 5 7 6 7 6 6 6 5 5 4 5 5 5 5 5 4 4
15 14 13 14 14 12 11 9 7 6 5 3 0 2 3 3 4 5 5 5 6 5 5 6 6 5 5 7 7 8 9 10 10 10 10 11 11 11 11 11 9 9 10 10 10 11 11 13 12 12 12 12 10 11 12 9 5 8 8 4 3 2 2 7 5 5 3 4 6 7 7 7 6 7 7 6 6 6 5 5 5 5 5 4 4
14 14 14 14 15 15 13 12 9 8 6 5 2 1 1 1 3 4 5 5 6 7 6 5 4 5 4 5 6 6 8 9 9 10 10 11 11 10 11 10 10 11 10 11 10 10 7 9 12 14 11 12 13 12 12 10 13 12 10 4 3 1 4 4 2 4 4 6 6 4 5 7 7 7 7 7 7 7 6 6 6 5 5 5 4
15 14 14 13 13 13 14 13 12 10 9 8 6 4 3 4 3 3 4 4 5 6 6 5 4 4 5 5 6 6 7 8 9 10 10 10 10 11 11 11 11 11 11 9 11 10 12 12 13 13 14 13 13 12 10 11 12 10 9 9 6 5 4 3 2 2 2 4 4 9 7 6 6 7 8 7 6 6 6 6 6 6 5 6 5
13 14 13 13 13 13 14 14 14 11 10 10 8 7 5 4 4 4 6 6 6 6 5 6 6 4 5 6 6 6 6 7 8 10 9 10 10 10 10 11 12 12 10 11 13 13 12 13 15 16 15 14 12 13 13 10 12 12 10 10 11 7 5 4 3 3 4 3 2 8 8 10 9 9 8 9 8 7 6 5 6 6 5 6 6
14 14 13 13 12 13 13 14 14 11 12 11 11 9 7 6 5 6 7 7 8 7 7 7 6 6 6 5 6 6 6 6 7 8 10 10 10 10 11 10 10 10 11 11 14 13 11 12 13 15 15 15 13 14 13 11 10 12 11 11 13 14 14 12 11 8 7 5 4 5 7 9 9 5 9 8 8 8 6 6 6 6 6 6 6
Wind_Direction
175 155 144 145 156 165 170 173 174 175 175 176 177 173 170 167 166 166 164 163 163 163 161 161 160 156 153 150 147 144 140 138 137 132 120 122 120 123 130 134 139 135 135 131 131 125 115 110 107 89 86 83 81 77 71 69 66 67 66 63 59 57 57 59 66 61 64 64 71 82 85 81 81 76 72 66 61 50 35 26 42 77 70 65 62
160 157 145 151 157 168 170 173 175 176 176 178 176 175 172 168 167 170 168 167 168 169 169 168 166 165 160 157 156 155 149 145 140 136 132 131 131 137 139 139 133 137 137 131 126 116 114 109 93 89 86 80 77 74 69 66 67 66 67 67 64 63 59 53 51 48 49 60 72 78 79 87 82 79 74 69 65 56 43 35 38 68 70 69 66
151 158 148 152 157 170 171 173 177 177 178 177 177 175 174 171 169 171 172 172 172 172 173 173 172 171 170 168 164 162 159 155 146 145 142 138 134 132 134 128 121 123 123 121 114 115 110 100 91 93 89 79 75 71 66 62 59 61 65 68 68 65 62 62 53 51 45 42 93 94 85 81 87 83 78 72 65 60 54 49 51 65 67 66 70
151 158 151 148 158 172 173 175 178 178 178 180 178 176 177 174 172 173 177 177 176 176 177 179 179 179 180 178 176 167 165 156 148 140 133 128 127 122 120 126 123 123 117 115 114 108 99 91 90 86 86 87 78 74 69 64 61 58 59 61 61 59 60 55 62 50 12 38 195 169 108 104 95 89 86 79 73 65 61 59 60 70 70 66 62
155 156 147 154 164 173 179 180 178 179 180 181 179 177 179 177 175 177 178 179 180 182 184 185 188 191 188 189 182 171 165 151 145 134 128 119 115 121 122 123 123 120 114 113 108 101 95 102 97 90 88 86 84 76 72 67 65 61 59 57 54 47 43 37 31 24 338 307 276 253 108 96 96 90 91 86 80 76 69 67 67 70 75 70 64
161 159 149 160 168 172 184 182 181 180 182 182 180 179 182 180 183 182 180 182 186 186 187 190 193 198 195 193 182 174 165 153 144 135 125 116 116 116 120 124 119 115 112 108 103 98 100 99 98 91 86 82 83 79 72 66 63 62 60 59 54 47 38 24 8 351 318 295 289 56 102 109 101 97 93 95 88 83 82 76 71 73 68 79 76
162 161 156 161 168 172 185 187 184 184 184 184 183 181 184 183 186 186 188 187 190 191 192 193 194 198 195 191 177 173 163 155 145 135 123 120 112 104 116 120 124 119 112 105 102 106 107 103 99 101 95 90 84 78 70 66 64 60 59 56 52 47 38 24 4 338 310 296 242 96 99 93 102 103 96 96 96 90 83 82 73 66 58 59 71
162 166 163 164 174 160 176 193 190 186 188 187 184 185 186 186 187 190 190 191 193 197 198 198 198 197 192 181 175 166 159 153 146 139 127 121 123 108 99 114 120 117 109 104 106 101 99 96 103 104 103 101 95 90 80 70 65 65 64 61 58 45 32 22 358 323 305 279 19 333 72 101 108 100 99 95 94 95 87 81 79 71 58 52 61
167 173 170 164 175 146 170 190 198 190 191 190 187 187 186 188 187 189 192 194 196 198 199 197 199 192 180 178 168 163 157 150 144 136 139 129 117 114 117 48 27 126 128 120 118 118 107 110 108 107 110 109 106 104 101 91 77 71 69 70 64 54 32 6 343 316 269 356 241 69 302 104 90 94 95 88 80 67 62 82 91 76 57 47 56
168 176 174 166 161 150 158 181 200 192 192 191 188 190 187 187 188 190 192 192 195 197 199 195 193 177 176 174 167 163 158 148 134 127 127 139 128 44 27 89 26 187 148 165 140 140 137 124 132 114 111 111 109 107 107 103 96 82 76 70 67 57 33 351 321 302 356 149 85 69 60 333 81 83 88 86 81 67 62 50 55 59 62 66 67
169 175 177 175 142 151 156 170 196 193 192 189 186 188 188 189 188 190 190 189 190 193 192 187 178 175 174 170 165 162 157 148 144 145 143 123 105 88 285 108 101 327 200 207 189 170 152 151 157 120 110 105 105 105 99 95 93 85 79 71 62 49 26 343 296 153 31 39 49 93 82 95 102 90 89 84 78 77 73 64 60 78 77 72 73
175 176 174 172 129 150 161 172 189 190 187 181 178 185 187 187 186 187 184 183 180 182 179 174 170 171 170 170 165 166 167 150 154 167 160 145 152 184 243 170 169 163 254 193 162 147 137 149 137 112 106 104 102 100 95 91 86 80 73 66 60 50 16 338 318 88 79 80 52 351 55 87 82 95 91 84 82 83 79 78 71 71 73 70 69
177 177 174 169 140 142 164 173 186 185 178 174 177 184 185 185 182 182 179 179 171 172 173 168 169 173 172 178 172 172 186 170 177 176 183 171 180 198 225 193 216 226 214 189 148 139 140 141 125 112 107 102 99 95 93 88 86 76 67 62 53 43 21 345 88 94 83 67 82 29 116 119 87 75 80 82 78 71 65 72 72 63 61 62 66
177 178 178 176 152 147 159 182 182 179 175 174 177 183 181 185 181 179 178 178 173 173 175 174 174 179 185 190 185 187 182 183 156 161 132 108 185 213 221 217 216 213 206 184 148 149 150 135 117 110 106 101 96 94 94 91 84 74 63 54 39 20 346 317 59 79 83 93 51 49 3 80 62 64 72 74 72 69 69 68 73 64 53 54 57
180 183 175 177 166 162 166 186 182 178 171 177 180 175 177 179 181 180 183 176 180 179 185 183 190 193 197 201 197 202 182 203 155 130 136 154 198 209 219 204 190 197 193 177 171 163 150 134 120 107 101 100 95 92 89 86 79 70 61 49 37 8 349 335 76 99 86 67 93 85 43 75 36 75 66 62 68 62 54 54 59 69 68 61 56
184 183 178 178 178 179 173 181 191 186 174 178 185 180 176 175 177 186 185 192 192 184 192 192 196 208 211 220 218 206 195 188 172 155 158 180 205 205 201 201 195 193 190 186 174 162 149 131 117 109 104 100 99 93 89 86 81 69 59 49 36 17 358 331 113 107 96 80 88 94 93 69 35 58 87 62 53 44 39 30 33 36 64 64 62
184 186 183 184 186 182 187 184 182 182 186 186 188 190 187 180 178 187 194 197 197 197 196 192 202 205 204 211 180 167 169 189 170 165 167 195 209 203 197 199 197 196 191 182 175 162 142 130 125 119 113 107 103 100 94 88 82 76 67 55 43 30 360 332 96 62 73 71 49 46 58 58 32 59 33 68 61 47 31 32 23 20 42 58 62
186 189 193 191 191 193 188 193 181 187 187 186 196 197 192 190 186 190 194 193 193 200 204 198 196 191 183 189 177 168 163 161 157 169 172 196 207 199 193 196 193 189 181 175 169 153 144 138 135 130 125 119 113 110 102 95 88 82 74 63 54 29 356 326 82 88 78 72 75 49 68 4 39 57 64 53 60 56 53 39 38 38 47 60 58
191 195 197 196 196 199 194 194 192 193 196 192 195 197 203 198 195 190 186 187 191 196 198 187 181 174 163 149 129 147 144 146 152 167 168 179 201 191 192 195 191 184 179 171 162 153 149 146 143 140 135 129 123 116 111 103 100 96 88 79 60 2 312 298 64 84 93 69 72 69 33 351 139 89 68 82 71 76 66 57 57 64 66 61 67
200 201 203 203 200 200 200 200 200 200 202 201 204 201 195 198 191 184 182 181 180 184 181 174 167 155 143 133 130 128 132 136 138 142 157 181 189 195 182 201 187 182 176 170 159 156 153 152 149 146 139 133 124 115 111 111 109 104 101 97 41 271 238 85 89 72 83 63 49 69 5 7 67 95 79 72 78 73 71 72 82 81 72 69 68
200 204 206 204 204 202 201 202 202 203 206 205 208 206 180 187 187 184 182 181 176 178 174 164 153 139 138 136 141 167 172 162 153 180 155 194 176 198 175 202 186 181 173 171 161 157 157 154 153 147 141 129 113 100 96 104 103 103 101 105 274 249 70 77 75 80 66 85 77 53 356 32 70 84 86 81 80 83 90 107 102 88 81 78 69
197 201 206 205 201 205 204 206 203 204 203 206 207 206 180 181 197 186 187 180 176 174 170 178 172 166 144 147 182 197 198 199 194 199 189 197 174 179 179 189 184 175 165 170 160 159 157 155 153 146 136 125 123 119 100 79 81 91 75 291 267 86 87 84 87 88 83 90 76 20 1 30 80 90 95 102 108 112 112 111 107 101 98 85 83
200 201 202 203 203 202 204 205 204 203 206 205 207 213 185 184 198 199 194 187 184 181 192 189 189 188 176 186 197 203 201 198 199 187 201 186 179 167 172 173 171 159 154 161 162 159 157 153 147 142 140 147 169 146 138 145 129 184 235 246 89 70 69 78 92 95 76 55 93 10 0 14 88 127 131 132 129 137 127 112 111 106 99 89 91
206 198 199 199 202 204 203 206 203 202 202 205 206 210 207 182 207 210 205 197 194 190 200 197 197 201 198 196 200 201 196 203 169 166 163 175 156 162 163 151 140 141 143 149 158 161 158 149 147 144 148 188 185 165 147 161 166 184 181 129 111 104 112 97 72 89 99 53 62 2 356 355 124 165 145 151 139 141 145 131 112 109 97 95 96
206 198 197 196 200 201 199 203 203 202 200 201 203 207 211 210 207 208 209 208 204 191 199 200 200 200 198 199 201 196 190 200 168 168 184 183 180 178 168 169 167 166 155 170 169 160 160 158 151 172 190 196 188 172 166 165 170 167 143 114 115 120 102 84 81 86 94 88 47 356 355 347 318 178 162 149 149 151 141 131 125 116 116 112 97
195 200 199 197 197 199 199 198 201 202 198 199 202 205 207 210 208 204 208 208 201 193 196 200 200 200 198 197 198 194 191 196 176 180 186 184 177 182 182 183 179 177 178 179 177 166 181 170 174 191 196 184 184 169 177 164 153 156 129 117 120 129 110 99 93 89 89 94 62 360 354 341 326 187 168 163 157 158 146 138 127 116 122 120 116
205 207 202 202 195 196 200 198 199 199 203 201 202 209 209 206 205 201 202 197 193 193 194 198 198 194 196 193 198 193 190 194 178 184 188 188 182 183 183 184 180 179 183 186 178 173 183 174 181 191 187 170 158 144 129 110 109 112 105 116 103 106 111 105 107 100 89 95 73 13 352 343 331 181 184 174 165 162 151 135 122 128 121 119 112
217 209 205 202 192 195 197 197 199 197 197 200 205 209 205 198 199 194 198 196 191 194 196 198 193 194 192 194 197 189 187 191 184 186 189 191 187 184 182 183 180 179 181 186 172 174 181 177 179 180 169 160 154 150 138 126 114 107 108 102 103 98 92 98 86 91 110 117 110 31 353 351 347 322 178 177 172 171 163 147 138 140 150 125 122
231 218 207 204 199 193 195 199 198 198 195 194 203 204 202 200 199 200 199 191 196 197 196 194 195 193 193 195 196 188 189 190 187 187 187 191 186 184 182 182 177 176 179 179 173 174 177 175 174 172 172 165 154 156 142 137 144 121 111 109 109 90 91 100 99 88 101 118 110 49 6 1 356 6 331 173 166 175 166 151 141 139 132 124 103
228 225 212 206 202 193 195 197 198 198 196 195 202 204 202 201 201 200 199 189 198 197 193 195 196 194 193 198 194 194 190 189 187 187 187 187 186 182 182 179 179 175 175 177 175 174 175 172 173 170 167 162 162 153 152 140 118 115 119 111 112 116 112 103 119 134 124 102 104 101 34 9 9 10 31 174 176 181 180 158 162 157 151 138 133
225 225 219 211 199 194 196 196 198 194 196 198 197 204 202 204 201 201 199 195 193 194 194 193 194 192 193 192 192 193 189 190 187 187 187 186 186 181 182 178 177 174 175 173 170 174 173 174 172 169 167 166 163 149 167 142 138 125 108 121 111 110 106 109 117 113 119 126 124 118 78 38 23 18 25 51 76 105 154 162 179 162 156 148 145
219 221 219 210 200 198 196 197 198 194 195 198 197 200 203 204 200 203 204 198 191 194 195 194 192 193 192 188 190 191 190 192 189 188 188 184 185 182 183 179 180 172 174 170 165 171 171 167 162 168 163 163 149 155 159 151 149 140 126 119 124 120 129 124 123 132 121 113 130 140 128 83 45 36 25 47 74 68 60 68 95 112 132 140 141
216 217 212 207 206 198 196 197 196 195 195 197 196 198 201 201 200 203 204 196 195 194 195 194 192 193 188 185 188 188 190 192 191 189 187 186 184 180 181 181 177 168 170 164 157 162 165 155 153 150 156 154 149 148 152 156 147 138 150 147 145 135 132 147 134 135 139 153 145 146 137 132 98 56 42 30 36 58 56 50 64 71 98 141 153
215 207 207 209 202 196 193 192 197 197 196 200 197 194 197 198 200 202 202 197 197 196 198 193 193 191 184 184 186 188 190 191 190 187 184 187 183 180 180 176 176 165 164 156 162 168 167 163 157 164 163 165 163 159 167 163 152 149 148 156 164 154 153 152 148 140 153 158 156 141 146 156 154 116 75 51 36 35 50 54 60 58 66 141 153
217 215 203 203 196 192 184 195 191 201 193 202 199 198 195 195 197 198 198 197 197 199 199 195 194 191 184 183 185 188 189 191 188 184 186 189 184 180 180 177 173 164 163 166 168 172 172 170 166 174 163 178 169 164 173 167 156 155 152 161 161 154 156 145 140 143 165 157 157 155 158 159 160 136 142 120 67 36 37 46 60 82 77 79 79
232 222 212 196 204 196 187 196 191 198 198 197 199 199 197 198 197 195 198 196 199 201 198 197 194 192 189 185 184 187 187 190 189 186 185 192 188 185 183 178 169 164 169 166 176 174 176 173 176 175 164 178 167 167 177 162 158 152 152 160 147 170 162 152 158 164 163 170 164 162 163 153 162 157 158 141 109 65 44 46 49 50 49 49 47
239 231 221 205 205 205 190 198 197 198 201 197 198 201 200 200 199 199 201 197 201 201 201 198 195 195 194 189 182 184 184 187 189 186 187 190 191 188 184 177 165 168 168 168 177 178 172 173 174 184 175 168 169 166 167 158 149 143 139 143 149 174 165 162 165 160 167 177 164 167 157 132 92 107 171 126 131 128 70 59 56 47 35 39 45
254 244 244 223 213 211 198 195 202 199 203 200 199 199 201 198 202 202 203 206 203 203 203 199 199 198 195 193 177 180 183 188 188 187 189 190 191 189 182 172 161 167 169 168 179 177 173 174 169 179 181 170 170 169 167 155 138 146 144 148 163 185 167 162 164 158 181 171 173 172 163 153 159 178 147 154 141 135 131 100 92 68 35 31 47
292 277 248 240 220 212 202 185 193 196 199 200 198 202 202 203 203 204 204 208 202 205 205 204 202 198 199 191 176 179 181 189 189 187 189 190 192 189 184 165 161 171 169 171 176 179 175 181 172 166 179 182 171 169 164 143 139 134 142 149 159 175 169 172 164 191 179 178 173 164 161 162 158 166 154 156 164 142 151 158 171 152 74 26 38
336 319 311 250 221 214 204 184 186 192 192 198 191 194 200 204 204 203 206 206 206 202 206 209 203 202 198 189 180 179 180 187 189 188 189 190 190 189 181 157 166 172 173 174 180 180 176 178 178 164 163 161 177 163 151 139 133 129 131 134 156 175 187 174 195 192 187 178 172 175 175 168 166 164 162 168 146 148 154 170 154 148 127 84 41
10 354 332 279 228 216 198 200 180 186 186 188 193 192 195 202 208 212 214 208 208 208 209 211 213 210 202 195 183 180 180 183 188 187 191 190 193 189 177 161 170 178 180 185 184 180 176 176 166 165 162 153 165 160 151 144 137 137 153 164 169 186 186 208 203 197 199 184 185 190 178 176 176 165 171 175 145 159 162 168 169 169 152 142 146
22 16 15 353 342 297 243 215 181 183 191 193 192 196 204 207 206 214 218 218 207 206 212 211 214 215 211 201 191 182 183 181 184 187 186 191 195 193 181 167 172 185 188 187 183 174 171 175 163 157 180 171 171 170 162 151 179 178 164 174 188 183 189 206 210 208 203 199 192 192 183 186 177 175 173 156 160 164 167 170 166 163 156 171 157
30 28 19 13 14 358 341 284 193 179 194 197 194 200 206 212 219 227 220 225 226 226 223 221 213 215 210 204 196 184 185 184 182 186 187 192 197 193 184 170 180 183 185 184 181 175 175 178 175 170 167 187 173 173 176 190 170 177 164 151 196 180 183 216 212 215 203 203 197 198 192 187 179 178 173 172 171 172 168 163 158 162 163 169 158
32 28 21 20 22 17 14 2 345 189 194 195 205 208 212 209 207 230 227 225 229 218 226 224 219 213 210 200 199 195 190 190 186 185 190 192 198 199 188 180 182 186 189 185 185 184 178 182 182 182 168 164 188 180 193 200 197 166 179 201 183 188 211 212 191 201 197 202 197 199 192 189 177 182 184 186 179 169 167 163 163 166 166 169 166
27 23 20 20 16 17 16 16 7 10 255 176 185 201 176 174 169 156 102 200 237 211 201 214 208 200 205 203 200 194 194 195 192 190 189 195 199 204 197 186 182 188 190 194 190 188 182 188 184 183 183 177 183 171 190 200 217 213 180 160 175 205 227 115 152 170 181 198 203 202 189 191 181 185 195 190 175 168 159 159 173 165 166 167 173
25 19 19 21 21 20 18 16 27 26 9 126 182 196 189 203 200 210 224 227 237 228 231 231 216 213 217 214 209 203 200 202 201 196 193 191 196 203 201 193 187 189 192 200 195 185 189 188 189 191 191 196 180 162 181 204 214 228 254 265 342 201 185 146 160 178 169 210 195 203 197 196 187 184 200 184 179 180 173 169 169 168 167 173 172
20 17 20 19 21 22 20 20 26 30 31 2 181 211 210 233 238 247 258 265 266 259 247 243 239 227 218 212 208 205 204 204 205 204 199 197 199 202 201 202 196 193 195 204 202 196 189 192 186 198 196 192 183 190 184 182 195 245 235 227 226 215 286 143 197 110 184 190 210 191 205 195 197 198 202 199 182 194 177 170 173 164 169 171 170
19 18 19 19 20 19 20 23 26 29 32 6 11 353 311 272 268 263 266 271 272 280 289 284 250 240 230 208 207 206 202 207 210 210 205 200 199 204 203 203 201 197 193 204 207 202 184 193 195 199 197 197 194 195 189 179 182 210 208 201 222 257 298 312 291 198 161 157 191 201 202 195 203 210 208 205 196 194 181 180 169 169 168 175 170
23 20 19 19 18 20 24 24 25 26 19 19 7 7 355 338 322 301 284 281 281 281 284 279 268 239 224 210 210 210 203 206 213 214 211 207 203 210 207 205 205 206 203 204 207 207 199 190 192 195 202 201 202 203 194 192 194 196 171 212 212 204 225 253 282 340 223 157 170 179 188 180 204 216 213 210 205 194 194 180 172 170 175 165 175
25 22 24 24 22 21 24 23 24 24 19 17 12 11 9 355 336 323 311 305 304 299 289 282 277 257 237 220 210 211 210 204 209 215 213 211 208 209 215 211 211 208 204 207 209 212 209 204 199 201 204 206 206 207 207 198 199 202 194 184 197 202 209 214 232 231 273 260 186 187 175 172 194 216 198 203 203 197 187 180 169 176 176 170 176
23 21 20 21 23 24 22 27 23 21 18 16 14 12 12 10 0 341 328 315 311 304 298 292 285 277 263 242 224 219 213 208 204 208 214 213 212 209 214 214 216 216 216 214 212 211 207 199 198 203 206 208 208 207 210 209 196 204 200 197 198 198 197 197 203 202 201 207 229 172 179 187 196 163 196 194 192 194 186 179 180 180 185 177 177